Location: San Martino di Castrozza
(46.2667°N, 11.8000°E)
Time: 02:30:12
(UTC+00:00)

Cosmos 1805 - Pass Details

Date: 23 April 2021
Orbit: 524 x 530 km, 82.5° (Epoch: 15 May)

Event Time Altitude Azimuth Distance (km) Brightness Sun altitude
Rises 02:12:29 0° 349° (NNW) 2,683 7.3 -18.5°
Reaches altitude 10° 02:14:38 10° 347° (NNW) 1,787 6.3 -18.2°
Maximum altitude 02:18:32 71° 264° (W) 563 3.1 -17.7°
Enters shadow 02:20:17 31° 186° (S) 940 4.1 -17.5°
